Year,Month,Day,Hour,Minute,Value (Times are PST for temperature in C)
2012,05,26,00,00,13.80
2012,05,26,00,01,13.80
2012,05,26,00,02,13.80
2012,05,26,00,03,13.70
2012,05,26,00,04,13.70
2012,05,26,00,05,13.70
2012,05,26,00,06,13.70
2012,05,26,00,07,13.70
2012,05,26,00,08,13.60
2012,05,26,00,09,13.60
2012,05,26,00,10,13.60
2012,05,26,00,11,13.50
2012,05,26,00,12,13.50
2012,05,26,00,13,13.40
2012,05,26,00,14,13.40
2012,05,26,00,15,13.30
2012,05,26,00,16,13.30
2012,05,26,00,17,13.20
2012,05,26,00,18,13.20
2012,05,26,00,19,13.20
2012,05,26,00,20,13.20
2012,05,26,00,21,13.20
2012,05,26,00,22,13.20
2012,05,26,00,23,13.20
2012,05,26,00,24,13.10
2012,05,26,00,25,13.00
2012,05,26,00,26,12.90
2012,05,26,00,27,12.90
2012,05,26,00,28,12.90
2012,05,26,00,29,12.90
2012,05,26,00,30,12.80
2012,05,26,00,31,12.80
2012,05,26,00,32,12.80
2012,05,26,00,33,12.80
2012,05,26,00,34,12.80
2012,05,26,00,35,12.80
2012,05,26,00,36,12.80
2012,05,26,00,37,12.80
2012,05,26,00,38,12.80
2012,05,26,00,39,12.80
2012,05,26,00,40,12.80
2012,05,26,00,41,12.80
2012,05,26,00,42,12.70
2012,05,26,00,43,12.70
2012,05,26,00,44,12.70
2012,05,26,00,45,12.70
2012,05,26,00,46,12.60
2012,05,26,00,47,12.60
2012,05,26,00,48,12.60
2012,05,26,00,49,12.60
2012,05,26,00,50,12.50
2012,05,26,00,51,12.50
2012,05,26,00,52,12.50
2012,05,26,00,53,12.40
2012,05,26,00,54,12.40
2012,05,26,00,55,12.30
2012,05,26,00,56,12.30
2012,05,26,00,57,12.30
2012,05,26,00,58,12.30
2012,05,26,00,59,12.30
2012,05,26,01,00,12.20
2012,05,26,01,01,12.20
2012,05,26,01,02,12.20
2012,05,26,01,03,12.20
2012,05,26,01,04,12.20
2012,05,26,01,05,12.20
2012,05,26,01,06,12.10
2012,05,26,01,07,12.10
2012,05,26,01,08,12.10
2012,05,26,01,09,12.10
2012,05,26,01,10,12.00
2012,05,26,01,11,12.00
2012,05,26,01,12,12.00
2012,05,26,01,13,12.00
2012,05,26,01,14,11.90
2012,05,26,01,15,11.90
2012,05,26,01,16,11.90
2012,05,26,01,17,11.90
2012,05,26,01,18,11.90
2012,05,26,01,19,11.90
2012,05,26,01,20,11.80
2012,05,26,01,21,11.80
2012,05,26,01,22,11.80
2012,05,26,01,23,11.80
2012,05,26,01,24,11.80
2012,05,26,01,25,11.70
2012,05,26,01,26,11.70
2012,05,26,01,27,11.70
2012,05,26,01,28,11.60
2012,05,26,01,29,11.60
2012,05,26,01,30,11.60
2012,05,26,01,31,11.60
2012,05,26,01,32,11.60
2012,05,26,01,33,11.50
2012,05,26,01,34,11.40
2012,05,26,01,35,11.40
2012,05,26,01,36,11.40
2012,05,26,01,37,11.40
2012,05,26,01,38,11.40
2012,05,26,01,39,11.40
2012,05,26,01,40,11.40
2012,05,26,01,41,11.30
2012,05,26,01,42,11.30
2012,05,26,01,43,11.30
2012,05,26,01,44,11.20
2012,05,26,01,45,11.20
2012,05,26,01,46,11.20
2012,05,26,01,47,11.10
2012,05,26,01,48,11.10
2012,05,26,01,49,11.10
2012,05,26,01,50,11.10
2012,05,26,01,51,11.10
2012,05,26,01,52,11.00
2012,05,26,01,53,10.90
2012,05,26,01,54,10.90
2012,05,26,01,55,10.90
2012,05,26,01,56,10.90
2012,05,26,01,57,10.90
2012,05,26,01,58,10.90
2012,05,26,01,59,10.90
2012,05,26,02,00,10.80
2012,05,26,02,01,10.80
2012,05,26,02,02,10.80
2012,05,26,02,03,10.80
2012,05,26,02,04,10.70
2012,05,26,02,05,10.70
2012,05,26,02,06,10.70
2012,05,26,02,07,10.60
2012,05,26,02,08,10.60
2012,05,26,02,09,10.60
2012,05,26,02,10,10.60
2012,05,26,02,11,10.60
2012,05,26,02,12,10.60
2012,05,26,02,13,10.60
2012,05,26,02,14,10.60
2012,05,26,02,15,10.60
2012,05,26,02,16,10.60
2012,05,26,02,17,10.60
2012,05,26,02,18,10.60
2012,05,26,02,19,10.60
2012,05,26,02,20,10.60
2012,05,26,02,21,10.50
2012,05,26,02,22,10.40
2012,05,26,02,23,10.40
2012,05,26,02,24,10.40
2012,05,26,02,25,10.40
2012,05,26,02,26,10.40
2012,05,26,02,27,10.40
2012,05,26,02,28,10.40
2012,05,26,02,29,10.40
2012,05,26,02,30,10.40
2012,05,26,02,31,10.40
2012,05,26,02,32,10.40
2012,05,26,02,33,10.40
2012,05,26,02,34,10.30
2012,05,26,02,35,10.30
2012,05,26,02,36,10.30
2012,05,26,02,37,10.30
2012,05,26,02,38,10.30
2012,05,26,02,39,10.30
2012,05,26,02,40,10.30
2012,05,26,02,41,10.30
2012,05,26,02,42,10.30
2012,05,26,02,43,10.30
2012,05,26,02,44,10.30
2012,05,26,02,45,10.30
2012,05,26,02,46,10.20
2012,05,26,02,47,10.20
2012,05,26,02,48,10.20
2012,05,26,02,49,10.20
2012,05,26,02,50,10.20
2012,05,26,02,51,10.10
2012,05,26,02,52,10.10
2012,05,26,02,53,10.10
2012,05,26,02,54,10.10
2012,05,26,02,55,10.10
2012,05,26,02,56,10.10
2012,05,26,02,57,10.10
2012,05,26,02,58,10.10
2012,05,26,02,59,10.10
2012,05,26,03,00,10.10
2012,05,26,03,01,10.10
2012,05,26,03,02,10.10
2012,05,26,03,03,10.10
2012,05,26,03,04,10.10
2012,05,26,03,05,10.10
2012,05,26,03,06,10.10
2012,05,26,03,07,10.10
2012,05,26,03,08,10.00
2012,05,26,03,09,9.90
2012,05,26,03,10,9.90
2012,05,26,03,11,9.90
2012,05,26,03,12,9.90
2012,05,26,03,13,9.90
2012,05,26,03,14,9.90
2012,05,26,03,15,9.80
2012,05,26,03,16,9.80
2012,05,26,03,17,9.80
2012,05,26,03,18,9.80
2012,05,26,03,19,9.80
2012,05,26,03,20,9.70
2012,05,26,03,21,9.70
2012,05,26,03,22,9.70
2012,05,26,03,23,9.70
2012,05,26,03,24,9.70
2012,05,26,03,25,9.70
2012,05,26,03,26,9.70
2012,05,26,03,27,9.60
2012,05,26,03,28,9.60
2012,05,26,03,29,9.60
2012,05,26,03,30,9.60
2012,05,26,03,31,9.60
2012,05,26,03,32,9.60
2012,05,26,03,33,9.60
2012,05,26,03,34,9.50
2012,05,26,03,35,9.50
2012,05,26,03,36,9.50
2012,05,26,03,37,9.50
2012,05,26,03,38,9.50
2012,05,26,03,39,9.50
2012,05,26,03,40,9.40
2012,05,26,03,41,9.40
2012,05,26,03,42,9.40
2012,05,26,03,43,9.40
2012,05,26,03,44,9.40
2012,05,26,03,45,9.40
2012,05,26,03,46,9.40
2012,05,26,03,47,9.40
2012,05,26,03,48,9.30
2012,05,26,03,49,9.30
2012,05,26,03,50,9.30
2012,05,26,03,51,9.30
2012,05,26,03,52,9.30
2012,05,26,03,53,9.30
2012,05,26,03,54,9.20
2012,05,26,03,55,9.20
2012,05,26,03,56,9.20
2012,05,26,03,57,9.20
2012,05,26,03,58,9.20
2012,05,26,03,59,9.20
2012,05,26,04,00,9.20
2012,05,26,04,01,9.20
2012,05,26,04,02,9.20
2012,05,26,04,03,9.20
2012,05,26,04,04,9.20
2012,05,26,04,05,9.20
2012,05,26,04,06,9.20
2012,05,26,04,07,9.20
2012,05,26,04,08,9.20
2012,05,26,04,09,9.20
2012,05,26,04,10,9.20
2012,05,26,04,11,9.20
2012,05,26,04,12,9.20
2012,05,26,04,13,9.20
2012,05,26,04,14,9.10
2012,05,26,04,15,9.10
2012,05,26,04,16,9.10
2012,05,26,04,17,9.10
2012,05,26,04,18,9.10
2012,05,26,04,19,9.10
2012,05,26,04,20,9.10
2012,05,26,04,21,9.10
2012,05,26,04,22,9.10
2012,05,26,04,23,9.10
2012,05,26,04,24,9.10
2012,05,26,04,25,9.10
2012,05,26,04,26,9.10
2012,05,26,04,27,9.10
2012,05,26,04,28,9.10
2012,05,26,04,29,9.10
2012,05,26,04,30,9.10
2012,05,26,04,31,9.00
2012,05,26,04,32,9.00
2012,05,26,04,33,9.00
2012,05,26,04,34,9.00
2012,05,26,04,35,9.00
2012,05,26,04,36,9.00
2012,05,26,04,37,9.00
2012,05,26,04,38,9.00
2012,05,26,04,39,8.90
2012,05,26,04,40,8.90
2012,05,26,04,41,8.90
2012,05,26,04,42,8.90
2012,05,26,04,43,8.80
2012,05,26,04,44,8.80
2012,05,26,04,45,8.80
2012,05,26,04,46,8.80
2012,05,26,04,47,8.80
2012,05,26,04,48,8.80
2012,05,26,04,49,8.70
2012,05,26,04,50,8.70
2012,05,26,04,51,8.70
2012,05,26,04,52,8.70
2012,05,26,04,53,8.70
2012,05,26,04,54,8.70
2012,05,26,04,55,8.70
2012,05,26,04,56,8.70
2012,05,26,04,57,8.70
2012,05,26,04,58,8.70
2012,05,26,04,59,8.70
2012,05,26,05,00,8.70
2012,05,26,05,01,8.70
2012,05,26,05,02,8.70
2012,05,26,05,03,8.70
2012,05,26,05,04,8.70
2012,05,26,05,05,8.70
2012,05,26,05,06,8.70
2012,05,26,05,07,8.60
2012,05,26,05,08,8.60
2012,05,26,05,09,8.60
2012,05,26,05,10,8.60
2012,05,26,05,11,8.60
2012,05,26,05,12,8.60
2012,05,26,05,13,8.50
2012,05,26,05,14,8.50
2012,05,26,05,15,8.50
2012,05,26,05,16,8.50
2012,05,26,05,17,8.50
2012,05,26,05,18,8.50
2012,05,26,05,19,8.50
2012,05,26,05,20,8.50
2012,05,26,05,21,8.50
2012,05,26,05,22,8.50
2012,05,26,05,23,8.50
2012,05,26,05,24,8.50
2012,05,26,05,25,8.50
2012,05,26,05,26,8.50
2012,05,26,05,27,8.40
2012,05,26,05,28,8.40
2012,05,26,05,29,8.40
2012,05,26,05,30,8.40
2012,05,26,05,31,8.40
2012,05,26,05,32,8.40
2012,05,26,05,33,8.40
2012,05,26,05,34,8.40
2012,05,26,05,35,8.40
2012,05,26,05,36,8.40
2012,05,26,05,37,8.30
2012,05,26,05,38,8.30
2012,05,26,05,39,8.30
2012,05,26,05,40,8.30
2012,05,26,05,41,8.30
2012,05,26,05,42,8.30
2012,05,26,05,43,8.30
2012,05,26,05,44,8.30
2012,05,26,05,45,8.30
2012,05,26,05,46,8.30
2012,05,26,05,47,8.30
2012,05,26,05,48,8.30
2012,05,26,05,49,8.30
2012,05,26,05,50,8.30
2012,05,26,05,51,8.30
2012,05,26,05,52,8.30
2012,05,26,05,53,8.30
2012,05,26,05,54,8.30
2012,05,26,05,55,8.30
2012,05,26,05,56,8.40
2012,05,26,05,57,8.40
2012,05,26,05,58,8.40
2012,05,26,05,59,8.40
2012,05,26,06,00,8.40
2012,05,26,06,01,8.50
2012,05,26,06,02,8.50
2012,05,26,06,03,8.50
2012,05,26,06,04,8.50
2012,05,26,06,05,8.60
2012,05,26,06,06,8.60
2012,05,26,06,07,8.60
2012,05,26,06,08,8.60
2012,05,26,06,09,8.60
2012,05,26,06,10,8.60
2012,05,26,06,11,8.70
2012,05,26,06,12,8.70
2012,05,26,06,13,8.80
2012,05,26,06,14,8.90
2012,05,26,06,15,8.90
2012,05,26,06,16,9.00
2012,05,26,06,17,9.00
2012,05,26,06,18,9.00
2012,05,26,06,19,9.10
2012,05,26,06,20,9.10
2012,05,26,06,21,9.10
2012,05,26,06,22,9.10
2012,05,26,06,23,9.10
2012,05,26,06,24,9.10
2012,05,26,06,25,9.20
2012,05,26,06,26,9.20
2012,05,26,06,27,9.20
2012,05,26,06,28,9.20
2012,05,26,06,29,9.20
2012,05,26,06,30,9.30
2012,05,26,06,31,9.30
2012,05,26,06,32,9.40
2012,05,26,06,33,9.40
2012,05,26,06,34,9.50
2012,05,26,06,35,9.60
2012,05,26,06,36,9.70
2012,05,26,06,37,9.80
2012,05,26,06,38,9.90
2012,05,26,06,39,10.10
2012,05,26,06,40,10.10
2012,05,26,06,41,10.10
2012,05,26,06,42,10.20
2012,05,26,06,43,10.20
2012,05,26,06,44,10.20
2012,05,26,06,45,10.30
2012,05,26,06,46,10.30
2012,05,26,06,47,10.40
2012,05,26,06,48,10.40
2012,05,26,06,49,10.50
2012,05,26,06,50,10.60
2012,05,26,06,51,10.70
2012,05,26,06,52,10.80
2012,05,26,06,53,10.90
2012,05,26,06,54,11.10
2012,05,26,06,55,11.20
2012,05,26,06,56,11.30
2012,05,26,06,57,11.40
2012,05,26,06,58,11.50
2012,05,26,06,59,11.60
2012,05,26,07,00,11.60
2012,05,26,07,01,11.70
2012,05,26,07,02,11.70
2012,05,26,07,03,11.80
2012,05,26,07,04,11.80
2012,05,26,07,05,11.90
2012,05,26,07,06,12.00
2012,05,26,07,07,12.10
2012,05,26,07,08,12.20
2012,05,26,07,09,12.30
2012,05,26,07,10,12.40
2012,05,26,07,11,12.50
2012,05,26,07,12,12.60
2012,05,26,07,13,12.70
2012,05,26,07,14,12.80
2012,05,26,07,15,12.90
2012,05,26,07,16,13.00
2012,05,26,07,17,13.00
2012,05,26,07,18,13.10
2012,05,26,07,19,13.20
2012,05,26,07,20,13.30
2012,05,26,07,21,13.40
2012,05,26,07,22,13.40
2012,05,26,07,23,13.40
2012,05,26,07,24,13.40
2012,05,26,07,25,13.40
2012,05,26,07,26,13.30
2012,05,26,07,27,13.30
2012,05,26,07,28,13.30
2012,05,26,07,29,13.30
2012,05,26,07,30,13.40
2012,05,26,07,31,13.50
2012,05,26,07,32,13.60
2012,05,26,07,33,13.70
2012,05,26,07,34,13.80
2012,05,26,07,35,13.90
2012,05,26,07,36,14.00
2012,05,26,07,37,14.00
2012,05,26,07,38,14.10
2012,05,26,07,39,14.10
2012,05,26,07,40,14.10
2012,05,26,07,41,14.10
2012,05,26,07,42,14.10
2012,05,26,07,43,14.10
2012,05,26,07,44,14.10
2012,05,26,07,45,14.10
2012,05,26,07,46,14.10
2012,05,26,07,47,14.10
2012,05,26,07,48,14.10
2012,05,26,07,49,14.10
2012,05,26,07,50,14.10
2012,05,26,07,51,14.10
2012,05,26,07,52,14.10
2012,05,26,07,53,14.10
2012,05,26,07,54,14.10
2012,05,26,07,55,14.10
2012,05,26,07,56,14.10
2012,05,26,07,57,14.10
2012,05,26,07,58,14.10
2012,05,26,07,59,14.10
2012,05,26,08,00,14.10
2012,05,26,08,01,14.10
2012,05,26,08,02,14.10
2012,05,26,08,03,14.10
2012,05,26,08,04,14.10
2012,05,26,08,05,14.20
2012,05,26,08,06,14.20
2012,05,26,08,07,14.20
2012,05,26,08,08,14.20
2012,05,26,08,09,14.20
2012,05,26,08,10,14.30
2012,05,26,08,11,14.30
2012,05,26,08,12,14.40
2012,05,26,08,13,14.50
2012,05,26,08,14,14.50
2012,05,26,08,15,14.50
2012,05,26,08,16,14.60
2012,05,26,08,17,14.60
2012,05,26,08,18,14.60
2012,05,26,08,19,14.70
2012,05,26,08,20,14.70
2012,05,26,08,21,14.70
2012,05,26,08,22,14.80
2012,05,26,08,23,14.80
2012,05,26,08,24,14.80
2012,05,26,08,25,14.80
2012,05,26,08,26,14.80
2012,05,26,08,27,14.80
2012,05,26,08,28,14.90
2012,05,26,08,29,14.90
2012,05,26,08,30,14.90
2012,05,26,08,31,15.00
2012,05,26,08,32,15.00
2012,05,26,08,33,15.00
2012,05,26,08,34,15.10
2012,05,26,08,35,15.10
2012,05,26,08,36,15.20
2012,05,26,08,37,15.30
2012,05,26,08,38,15.30
2012,05,26,08,39,15.50
2012,05,26,08,40,15.50
2012,05,26,08,41,15.60
2012,05,26,08,42,15.70
2012,05,26,08,43,15.80
2012,05,26,08,44,16.00
2012,05,26,08,45,16.10
2012,05,26,08,46,16.20
2012,05,26,08,47,16.20
2012,05,26,08,48,16.30
2012,05,26,08,49,16.30
2012,05,26,08,50,16.30
2012,05,26,08,51,16.40
2012,05,26,08,52,16.40
2012,05,26,08,53,16.60
2012,05,26,08,54,16.70
2012,05,26,08,55,16.70
2012,05,26,08,56,16.80
2012,05,26,08,57,16.90
2012,05,26,08,58,17.00
2012,05,26,08,59,17.00
2012,05,26,09,00,17.00
2012,05,26,09,01,17.10
2012,05,26,09,02,17.20
2012,05,26,09,03,17.30
2012,05,26,09,04,17.40
2012,05,26,09,05,17.50
2012,05,26,09,06,17.50
2012,05,26,09,07,17.60
2012,05,26,09,08,17.70
2012,05,26,09,09,17.60
2012,05,26,09,10,17.40
2012,05,26,09,11,17.10
2012,05,26,09,12,16.90
2012,05,26,09,13,16.60
2012,05,26,09,14,16.40
2012,05,26,09,15,16.30
2012,05,26,09,16,16.10
2012,05,26,09,17,16.10
2012,05,26,09,18,16.00
2012,05,26,09,19,15.90
2012,05,26,09,20,15.90
2012,05,26,09,21,15.90
2012,05,26,09,22,15.90
2012,05,26,09,23,15.90
2012,05,26,09,24,16.00
2012,05,26,09,25,16.10
2012,05,26,09,26,16.10
2012,05,26,09,27,16.00
2012,05,26,09,28,15.90
2012,05,26,09,29,15.90
2012,05,26,09,30,15.90
2012,05,26,09,31,15.80
2012,05,26,09,32,15.80
2012,05,26,09,33,15.80
2012,05,26,09,34,15.80
2012,05,26,09,35,15.80
2012,05,26,09,36,15.80
2012,05,26,09,37,15.90
2012,05,26,09,38,15.90
2012,05,26,09,39,16.00
2012,05,26,09,40,16.10
2012,05,26,09,41,16.10
2012,05,26,09,42,16.20
2012,05,26,09,43,16.30
2012,05,26,09,44,16.30
2012,05,26,09,45,16.40
2012,05,26,09,46,16.40
2012,05,26,09,47,16.40
2012,05,26,09,48,16.50
2012,05,26,09,49,16.60
2012,05,26,09,50,16.70
2012,05,26,09,51,16.70
2012,05,26,09,52,16.80
2012,05,26,09,53,16.90
2012,05,26,09,54,16.90
2012,05,26,09,55,17.00
2012,05,26,09,56,17.10
2012,05,26,09,57,17.20
2012,05,26,09,58,17.30
2012,05,26,09,59,17.40
2012,05,26,10,00,17.50
2012,05,26,10,01,17.70
2012,05,26,10,02,17.80
2012,05,26,10,03,17.90
2012,05,26,10,04,18.10
2012,05,26,10,05,18.20
2012,05,26,10,06,18.30
2012,05,26,10,07,18.50
2012,05,26,10,08,18.60
2012,05,26,10,09,18.70
2012,05,26,10,10,18.70
2012,05,26,10,11,18.80
2012,05,26,10,12,18.90
2012,05,26,10,13,19.00
2012,05,26,10,14,19.10
2012,05,26,10,15,19.10
2012,05,26,10,16,19.20
2012,05,26,10,17,19.30
2012,05,26,10,18,19.40
2012,05,26,10,19,19.50
2012,05,26,10,20,19.60
2012,05,26,10,21,19.70
2012,05,26,10,22,19.80
2012,05,26,10,23,19.90
2012,05,26,10,24,19.90
2012,05,26,10,25,19.90
2012,05,26,10,26,20.00
2012,05,26,10,27,20.10
2012,05,26,10,28,20.10
2012,05,26,10,29,20.10
2012,05,26,10,30,20.10
2012,05,26,10,31,20.00
2012,05,26,10,32,20.00
2012,05,26,10,33,20.10
2012,05,26,10,34,20.10
2012,05,26,10,35,20.20
2012,05,26,10,36,20.20
2012,05,26,10,37,20.20
2012,05,26,10,38,20.20
2012,05,26,10,39,20.20
2012,05,26,10,40,20.20
2012,05,26,10,41,20.20
2012,05,26,10,42,20.20
2012,05,26,10,43,20.30
2012,05,26,10,44,20.30
2012,05,26,10,45,20.30
2012,05,26,10,46,20.30
2012,05,26,10,47,20.20
2012,05,26,10,48,20.20
2012,05,26,10,49,20.20
2012,05,26,10,50,20.20
2012,05,26,10,51,20.20
2012,05,26,10,52,20.20
2012,05,26,10,53,20.20
2012,05,26,10,54,20.10
2012,05,26,10,55,20.10
2012,05,26,10,56,20.20
2012,05,26,10,57,20.20
2012,05,26,10,58,20.20
2012,05,26,10,59,20.20
2012,05,26,11,00,20.20
2012,05,26,11,01,20.20
2012,05,26,11,02,20.20
2012,05,26,11,03,20.20
2012,05,26,11,04,20.30
2012,05,26,11,05,20.30
2012,05,26,11,06,20.40
2012,05,26,11,07,20.40
2012,05,26,11,08,20.50
2012,05,26,11,09,20.60
2012,05,26,11,10,20.70
2012,05,26,11,11,20.70
2012,05,26,11,12,20.80
2012,05,26,11,13,20.70
2012,05,26,11,14,20.60
2012,05,26,11,15,20.50
2012,05,26,11,16,20.50
2012,05,26,11,17,20.40
2012,05,26,11,18,20.40
2012,05,26,11,19,20.30
2012,05,26,11,20,20.40
2012,05,26,11,21,20.50
2012,05,26,11,22,20.30
2012,05,26,11,23,20.00
2012,05,26,11,24,19.70
2012,05,26,11,25,19.50
2012,05,26,11,26,19.30
2012,05,26,11,27,19.10
2012,05,26,11,28,19.10
2012,05,26,11,29,19.10
2012,05,26,11,30,19.10
2012,05,26,11,31,19.10
2012,05,26,11,32,19.10
2012,05,26,11,33,19.20
2012,05,26,11,34,19.10
2012,05,26,11,35,19.10
2012,05,26,11,36,18.90
2012,05,26,11,37,18.70
2012,05,26,11,38,18.50
2012,05,26,11,39,18.40
2012,05,26,11,40,18.30
2012,05,26,11,41,18.20
2012,05,26,11,42,18.30
2012,05,26,11,43,18.40
2012,05,26,11,44,18.50
2012,05,26,11,45,18.50
2012,05,26,11,46,18.50
2012,05,26,11,47,18.50
2012,05,26,11,48,18.60
2012,05,26,11,49,18.60
2012,05,26,11,50,18.60
2012,05,26,11,51,18.60
2012,05,26,11,52,18.50
2012,05,26,11,53,18.50
2012,05,26,11,54,18.30
2012,05,26,11,55,18.20
2012,05,26,11,56,18.10
2012,05,26,11,57,18.00
2012,05,26,11,58,17.90
2012,05,26,11,59,17.80
2012,05,26,12,00,17.80
2012,05,26,12,01,17.70
2012,05,26,12,02,17.70
2012,05,26,12,03,17.70
2012,05,26,12,04,17.70
2012,05,26,12,05,17.70
2012,05,26,12,06,17.70
2012,05,26,12,07,17.70
2012,05,26,12,08,17.70
2012,05,26,12,09,17.80
2012,05,26,12,10,17.80
2012,05,26,12,11,18.00
2012,05,26,12,12,18.10
2012,05,26,12,13,18.30
2012,05,26,12,14,18.50
2012,05,26,12,15,18.60
2012,05,26,12,16,18.70
2012,05,26,12,17,18.80
2012,05,26,12,18,18.90
2012,05,26,12,19,19.10
2012,05,26,12,20,19.20
2012,05,26,12,21,19.40
2012,05,26,12,22,19.40
2012,05,26,12,23,19.60
2012,05,26,12,24,19.60
2012,05,26,12,25,19.70
2012,05,26,12,26,19.50
2012,05,26,12,27,19.40
2012,05,26,12,28,19.30
2012,05,26,12,29,19.10
2012,05,26,12,30,19.10
2012,05,26,12,31,19.10
2012,05,26,12,32,19.10
2012,05,26,12,33,19.10
2012,05,26,12,34,19.10
2012,05,26,12,35,19.00
2012,05,26,12,36,18.90
2012,05,26,12,37,18.80
2012,05,26,12,38,18.80
2012,05,26,12,39,18.80
2012,05,26,12,40,18.90
2012,05,26,12,41,18.90
2012,05,26,12,42,18.70
2012,05,26,12,43,18.60
2012,05,26,12,44,18.50
2012,05,26,12,45,18.40
2012,05,26,12,46,18.50
2012,05,26,12,47,18.50
2012,05,26,12,48,18.50
2012,05,26,12,49,18.50
2012,05,26,12,50,18.50
2012,05,26,12,51,18.50
2012,05,26,12,52,18.40
2012,05,26,12,53,18.30
2012,05,26,12,54,18.20
2012,05,26,12,55,18.10
2012,05,26,12,56,18.10
2012,05,26,12,57,18.20
2012,05,26,12,58,18.20
2012,05,26,12,59,18.30
2012,05,26,13,00,18.30
2012,05,26,13,01,18.30
2012,05,26,13,02,18.20
2012,05,26,13,03,18.00
2012,05,26,13,04,17.80
2012,05,26,13,05,17.70
2012,05,26,13,06,17.80
2012,05,26,13,07,17.80
2012,05,26,13,08,17.70
2012,05,26,13,09,17.60
2012,05,26,13,10,17.50
2012,05,26,13,11,17.50
2012,05,26,13,12,17.50
2012,05,26,13,13,17.50
2012,05,26,13,14,17.50
2012,05,26,13,15,17.50
2012,05,26,13,16,17.60
2012,05,26,13,17,17.60
2012,05,26,13,18,17.70
2012,05,26,13,19,17.70
2012,05,26,13,20,17.80
2012,05,26,13,21,17.90
2012,05,26,13,22,17.90
2012,05,26,13,23,17.90
2012,05,26,13,24,17.90
2012,05,26,13,25,17.80
2012,05,26,13,26,17.70
2012,05,26,13,27,17.60
2012,05,26,13,28,17.60
2012,05,26,13,29,17.60
2012,05,26,13,30,17.60
2012,05,26,13,31,17.70
2012,05,26,13,32,17.70
2012,05,26,13,33,17.60
2012,05,26,13,34,17.70
2012,05,26,13,35,17.70
2012,05,26,13,36,17.70
2012,05,26,13,37,17.70
2012,05,26,13,38,17.70
2012,05,26,13,39,17.80
2012,05,26,13,40,17.90
2012,05,26,13,41,17.90
2012,05,26,13,42,17.90
2012,05,26,13,43,18.00
2012,05,26,13,44,18.10
2012,05,26,13,45,18.20
2012,05,26,13,46,18.20
2012,05,26,13,47,18.20
2012,05,26,13,48,18.20
2012,05,26,13,49,18.20
2012,05,26,13,50,18.20
2012,05,26,13,51,18.30
2012,05,26,13,52,18.40
2012,05,26,13,53,18.50
2012,05,26,13,54,18.60
2012,05,26,13,55,18.60
2012,05,26,13,56,18.50
2012,05,26,13,57,18.50
2012,05,26,13,58,18.50
2012,05,26,13,59,18.50
2012,05,26,14,00,18.50
2012,05,26,14,01,18.40
2012,05,26,14,02,18.40
2012,05,26,14,03,18.40
2012,05,26,14,04,18.40
2012,05,26,14,05,18.40
2012,05,26,14,06,18.40
2012,05,26,14,07,18.50
2012,05,26,14,08,18.60
2012,05,26,14,09,18.60
2012,05,26,14,10,18.70
2012,05,26,14,11,18.80
2012,05,26,14,12,18.80
2012,05,26,14,13,18.80
2012,05,26,14,14,18.80
2012,05,26,14,15,18.90
2012,05,26,14,16,18.90
2012,05,26,14,17,18.90
2012,05,26,14,18,18.90
2012,05,26,14,19,18.90
2012,05,26,14,20,18.90
2012,05,26,14,21,19.00
2012,05,26,14,22,19.10
2012,05,26,14,23,19.10
2012,05,26,14,24,18.90
2012,05,26,14,25,18.60
2012,05,26,14,26,18.60
2012,05,26,14,27,18.50
2012,05,26,14,28,18.60
2012,05,26,14,29,18.70
2012,05,26,14,30,18.90
2012,05,26,14,31,19.10
2012,05,26,14,32,19.30
2012,05,26,14,33,19.40
2012,05,26,14,34,19.50
2012,05,26,14,35,19.70
2012,05,26,14,36,19.90
2012,05,26,14,37,19.90
2012,05,26,14,38,19.80
2012,05,26,14,39,19.80
2012,05,26,14,40,19.70
2012,05,26,14,41,19.60
2012,05,26,14,42,19.60
2012,05,26,14,43,19.50
2012,05,26,14,44,19.50
2012,05,26,14,45,19.50
2012,05,26,14,46,19.60
2012,05,26,14,47,19.60
2012,05,26,14,48,19.60
2012,05,26,14,49,19.60
2012,05,26,14,50,19.70
2012,05,26,14,51,19.90
2012,05,26,14,52,20.00
2012,05,26,14,53,20.10
2012,05,26,14,54,20.20
2012,05,26,14,55,20.20
2012,05,26,14,56,20.20
2012,05,26,14,57,20.20
2012,05,26,14,58,20.20
2012,05,26,14,59,20.20
2012,05,26,15,00,20.20
2012,05,26,15,01,20.20
2012,05,26,15,02,20.20
2012,05,26,15,03,20.20
2012,05,26,15,04,20.20
2012,05,26,15,05,20.30
2012,05,26,15,06,20.30
2012,05,26,15,07,20.40
2012,05,26,15,08,20.40
2012,05,26,15,09,20.30
2012,05,26,15,10,20.40
2012,05,26,15,11,20.40
2012,05,26,15,12,20.40
2012,05,26,15,13,20.40
2012,05,26,15,14,20.40
2012,05,26,15,15,20.30
2012,05,26,15,16,20.20
2012,05,26,15,17,20.20
2012,05,26,15,18,20.10
2012,05,26,15,19,20.10
2012,05,26,15,20,20.20
2012,05,26,15,21,20.20
2012,05,26,15,22,20.10
2012,05,26,15,23,19.90
2012,05,26,15,24,19.90
2012,05,26,15,25,20.00
2012,05,26,15,26,19.90
2012,05,26,15,27,19.80
2012,05,26,15,28,19.80
2012,05,26,15,29,19.90
2012,05,26,15,30,19.90
2012,05,26,15,31,20.00
2012,05,26,15,32,20.20
2012,05,26,15,33,20.20
2012,05,26,15,34,20.20
2012,05,26,15,35,20.20
2012,05,26,15,36,20.30
2012,05,26,15,37,20.30
2012,05,26,15,38,20.50
2012,05,26,15,39,20.60
2012,05,26,15,40,20.60
2012,05,26,15,41,20.70
2012,05,26,15,42,20.80
2012,05,26,15,43,20.80
2012,05,26,15,44,20.80
2012,05,26,15,45,20.80
2012,05,26,15,46,20.80
2012,05,26,15,47,21.00
2012,05,26,15,48,21.10
2012,05,26,15,49,21.20
2012,05,26,15,50,21.20
2012,05,26,15,51,21.20
2012,05,26,15,52,21.20
2012,05,26,15,53,21.10
2012,05,26,15,54,21.00
2012,05,26,15,55,21.00
2012,05,26,15,56,21.00
2012,05,26,15,57,21.00
2012,05,26,15,58,21.00
2012,05,26,15,59,21.00
2012,05,26,16,00,21.00
2012,05,26,16,01,21.10
2012,05,26,16,02,21.30
2012,05,26,16,03,21.50
2012,05,26,16,04,21.60
2012,05,26,16,05,21.70
2012,05,26,16,06,21.60
2012,05,26,16,07,21.60
2012,05,26,16,08,21.60
2012,05,26,16,09,21.60
2012,05,26,16,10,21.70
2012,05,26,16,11,21.90
2012,05,26,16,12,22.00
2012,05,26,16,13,22.10
2012,05,26,16,14,22.10
2012,05,26,16,15,22.10
2012,05,26,16,16,22.00
2012,05,26,16,17,22.00
2012,05,26,16,18,22.00
2012,05,26,16,19,21.90
2012,05,26,16,20,22.00
2012,05,26,16,21,22.00
2012,05,26,16,22,21.90
2012,05,26,16,23,21.80
2012,05,26,16,24,21.70
2012,05,26,16,25,21.50
2012,05,26,16,26,21.40
2012,05,26,16,27,21.30
2012,05,26,16,28,21.30
2012,05,26,16,29,21.20
2012,05,26,16,30,21.20
2012,05,26,16,31,21.30
2012,05,26,16,32,21.30
2012,05,26,16,33,21.30
2012,05,26,16,34,21.40
2012,05,26,16,35,21.50
2012,05,26,16,36,21.60
2012,05,26,16,37,21.70
2012,05,26,16,38,21.90
2012,05,26,16,39,22.00
2012,05,26,16,40,22.20
2012,05,26,16,41,22.30
2012,05,26,16,42,22.40
2012,05,26,16,43,22.50
2012,05,26,16,44,22.60
2012,05,26,16,45,22.60
2012,05,26,16,46,22.60
2012,05,26,16,47,22.60
2012,05,26,16,48,22.60
2012,05,26,16,49,22.60
2012,05,26,16,50,22.70
2012,05,26,16,51,22.70
2012,05,26,16,52,22.70
2012,05,26,16,53,22.70
2012,05,26,16,54,22.80
2012,05,26,16,55,22.90
2012,05,26,16,56,22.90
2012,05,26,16,57,22.90
2012,05,26,16,58,22.90
2012,05,26,16,59,23.00
2012,05,26,17,00,23.10
2012,05,26,17,01,23.20
2012,05,26,17,02,23.20
2012,05,26,17,03,23.20
2012,05,26,17,04,23.20
2012,05,26,17,05,23.30
2012,05,26,17,06,23.30
2012,05,26,17,07,23.30
2012,05,26,17,08,23.30
2012,05,26,17,09,23.40
2012,05,26,17,10,23.50
2012,05,26,17,11,23.60
2012,05,26,17,12,23.60
2012,05,26,17,13,23.70
2012,05,26,17,14,23.70
2012,05,26,17,15,23.70
2012,05,26,17,16,23.80
2012,05,26,17,17,24.00
2012,05,26,17,18,24.10
2012,05,26,17,19,24.10
2012,05,26,17,20,24.20
2012,05,26,17,21,24.30
2012,05,26,17,22,24.30
2012,05,26,17,23,24.30
2012,05,26,17,24,24.30
2012,05,26,17,25,24.30
2012,05,26,17,26,24.30
2012,05,26,17,27,24.30
2012,05,26,17,28,24.20